Regional Weather Roundup
Issued by NWS

Home | Current Version | Previous Version | Graphics & Text | Print | Product List | Glossary Off
Versions: 1 2 3 4 5 6 7 8 9 10 11 12 13 14 15 16 17 18 19 20 21 22 23 24 25 26 27 28 29 30 31 32 33 34 35 36 37 38 39 40 41 42 43 44 45 46 47 48 49 50

000
ASUS43 KLSX 290059
RWRMO

WEATHER SUMMARY FOR MISSOURI
NATIONAL WEATHER SERVICE SPRINGFIELD MO
700 PM CST SUN DEC 28 2014

NOTE: "FAIR" INDICATES FEW OR NO CLOUDS BELOW 12,000 FEET WITH NO
       SIGNIFICANT WEATHER AND/OR OBSTRUCTIONS TO VISIBILITY.
       CURRENT SKY AND/OR WEATHER CONDITIONS ARE NOT AVAILABLE FOR
       CHILLICOTHE AND FARMINGTON.

MOZ001>031-035>038-043-044-053-054-290200-
...NORTHERN AND WESTERN MISSOURI...

CITY           SKY/WX    TMP DP  RH WIND       PRES   REMARKS
KANSAS CTY INT MOCLDY    33  19  56 SW5       30.16R WCI  29
KANSAS C DTWN  MOCLDY    34  20  56 S5        30.17R WCI  30
LEE`S SUMMIT   PTCLDY    32  20  61 S6        30.18R WCI  26
ST JOSEPH      CLOUDY    30  22  72 S7        30.17R WCI  23
CHILLICOTHE      N/A     31  21  66 SE3       30.19S
KIRKSVILLE     PTCLDY    28  19  69 SW3       30.19R

$$
MOZ066>068-077>081-088>096-101>105-290200-
...SOUTHWEST MISSOURI...

CITY           SKY/WX    TMP DP  RH WIND       PRES   REMARKS
SPRINGFIELD    CLEAR     26  21  81 E3        30.15R
JOPLIN         CLEAR     29  23  78 VRB3      30.17R

$$
MOZ032>034-039>042-045>050-055>058-069>072-290200-
...CENTRAL MISSOURI...

CITY           SKY/WX    TMP DP  RH WIND       PRES   REMARKS
COLUMBIA       CLEAR     32  22  66 S5        30.19S WCI  27
JEFFERSON CITY CLEAR     28  22  78 CALM      30.21R
ROLLA          CLEAR     27  22  81 E3        30.16R
SEDALIA        CLEAR     32  19  58 CALM      30.19R
WARRENSBURG    CLEAR     32  19  59 SE3       30.19R
OSAGE BEACH    CLEAR     28  21  74 CALM      30.17S

$$
MOZ051-052-059>065-290200-
...EAST CENTRAL MISSOURI...

CITY           SKY/WX    TMP DP  RH WIND       PRES   REMARKS
ST LOUIS INTL  CLEAR     31  23  72 CALM      30.22R
SPIRIT OF STL  CLEAR     27  24  89 CALM      30.21R
ST CHARLES     CLEAR     29  26  89 NE3       30.22S

$$
MOZ072>076-082>087-097>100-106>115-290200-
...SOUTH CENTRAL AND SOUTHEAST MISSOURI...

CITY           SKY/WX    TMP DP  RH WIND       PRES   REMARKS
CAPE GIRARDEAU CLOUDY    34  27  75 NE6       30.22S WCI  29
FARMINGTON     CLEAR     27  23  86 CALM      30.20R
POPLAR BLUFF   CLOUDY    35  27  72 NE5       30.21S
WEST PLAINS    CLEAR     28  24  85 CALM      30.17R

$$



USA.gov is the U.S. government's official web portal to all federal, state and local government web resources and services.